Location: Heilbronn
(49.1548°N, 9.2780°E)
Time: 10:28:57
(UTC+01:00)

ISS - Pass Details

Date: 12 February 2018
Orbit: 403 x 407 km, 51.6° (Epoch: 19 February)

Event Time Altitude Azimuth Distance (km) Brightness Sun altitude
Rises 18:32:17 0° 287° (WNW) 2,322 1.3 -9.4°
Reaches altitude 10° 18:34:35 10° 273° (W) 1,459 0.5 -9.8°
Maximum altitude 18:37:18 24° 217° (SW) 881 -1.5 -10.2°
Drops below altitude 10° 18:40:00 10° 161° (SSE) 1,453 -1.1 -10.7°
Sets 18:42:18 0° 147° (SSE) 2,309 -0.2 -11.0°
